Showing default

LEMUR 2 MONSON, 42839

Orbit data source: Space-Track

LEMUR 2 MONSON, 42839 is a payload satellite owned by Spire (US) in SSO that was launched on Fri, 14 Jul 2017 UTC via a SOYUZ-2-1A launch vehicle from the Tyuratam Missile And Space Complex (TTMTR). Payload-class satellites include a variety of spacecraft equipped with specific instruments for various scientific and technological missions. These include communications satellites like Starlink; space stations such as the ISS; scientific satellites like the Hubble; Earth observation satellites from companies like Planet Labs, Umbra, and HawkEye 360; GPS; miniature CubeSats for education and research; and military/defense satellites.

Loading next visibility...
Identifier
42839, 2017-042Q
Orbit
SSO
Country
Flag of USUS
Related business
Manufacturer
Spire/Glasgow
Mission
Operational Commercial Com/MetRO
Bus & Motor
CUBESAT 3U, Unknown motor
Mass
4 kg wet, 4 kg dry
Launch date (UTC)
2017-07-14 (9 years ago)
Launch vehicle
SOYUZ-2-1A
Launch site
Tyuratam Missile And Space Complex (TTMTR)
Object type
Payload
Rocket body
Debris
Shape & HBR
Box, 0.4 m
Radar Cross Section
0.093 m², Medium (>0.1 m² and < 1m²)

Expand to show TLE details & history
Last TLE update: 21 hours ago

TLE from 21 hours ago
0 LEMUR 2 MONSON
1 42839U 17042Q   26255.45562065  .00011647  00000-0  40066-3 0  9991
2 42839  97.4118  75.6954 0007293  52.1648 308.0252 15.30204579501508
Epoch: 2026-09-12T10:56Z
TLE epoch observation values (Epoch: 2026-09-12T10:56:05.624Z)
Latitude
0.00003°
Longitude
-79.79241°
Altitude
475.228 km
Speed
7.63 km/s
True Right ascension
05h 02m 46s
True Declination
0° 00' 00"
Sunlit
Object was in daylight at epoch
Visualization orbit readout
Latitude
Unknown
Longitude
Unknown
Altitude
Unknown
Speed
Unknown
Apparent Right ascension
Unknown
Apparent Declination
Unknown
Sunlit
N/A
Visualization observer readout
Local Sidereal Time
00:11:40
Azimuth
Unknown
Elevation
Unknown
Doppler factor
Unknown
Orbital elements
Apogee altitude
477.15 km
Perigee altitude
467.158 km
Semi-major axis
6,850.291 km
Eccentricity
0.00073
Inclination
97.4118°
RAAN
75.6954°
Arg. of periapsis
52.1648°
True anomaly
307.95933°
Mean anomaly
308.0252°
Eccentric anomaly
307.99227°
Mean motion
3.82807 °/min
Orbital period
94.04 mins
BSTAR
0.00040066
Loading maneuver chart data...
Computing Atmospheric mass density...
Loading historical data...
Loading historical data...
Loading historical data...
Loading historical data...
Loading historical data...
Loading historical data...
Loading historical data...

Documentation

Showing up to 5 results
|